Wind_Speed
16 16 16 16 15 15 14 14 14 13 13 12 12 12 11 11 11 10 9 8 8 8 8 8 9 8 8 7 7 7 6 6 6 5 4 3 3 2 2 2 1 1 1
17 17 18 17 16 16 16 16 16 15 14 14 13 13 13 12 12 11 10 10 9 10 10 9 10 10 9 8 8 8 7 7 7 6 5 4 4 3 3 2 2 2 2
18 18 18 18 17 17 17 17 17 17 16 16 15 15 14 14 13 12 12 11 11 11 12 12 11 11 10 10 9 9 8 8 8 7 7 6 5 4 4 4 3 3 3
20 19 19 19 19 18 18 18 18 18 18 17 17 16 16 15 15 14 13 12 12 12 12 13 14 13 12 11 10 10 9 9 9 8 8 7 6 6 5 5 4 4 4
20 20 20 20 20 20 19 19 18 18 19 19 18 17 17 16 16 15 14 14 13 12 13 14 15 15 14 13 12 12 11 10 10 9 9 8 8 7 7 6 6 5 5
22 21 21 21 21 21 21 20 20 19 19 19 19 18 18 17 17 17 16 16 14 14 14 15 16 17 16 15 14 13 13 12 11 11 10 9 9 9 8 8 7 7 7
23 23 22 22 22 22 21 21 21 21 21 21 20 20 19 19 18 18 18 17 17 16 16 16 17 17 17 16 15 15 14 13 13 11 11 11 10 10 10 9 9 9 9
25 24 24 23 23 23 22 22 22 22 22 22 22 21 21 21 20 20 20 19 19 19 19 19 19 19 18 18 17 16 15 15 14 13 12 12 12 12 11 11 11 11 11
26 26 25 25 25 24 24 23 23 23 23 24 24 24 23 22 22 22 21 21 21 21 21 21 21 21 20 20 19 19 18 17 16 15 14 14 13 13 13 13 13 13 12
27 27 27 26 26 26 26 25 25 25 25 25 26 26 25 25 24 24 23 23 23 23 23 23 22 22 22 22 21 21 21 19 18 17 16 15 15 14 15 14 14 14 14
28 28 28 28 28 27 27 27 26 27 28 28 28 27 27 27 26 26 26 25 25 25 25 25 24 24 23 23 23 23 22 21 20 19 19 18 17 16 16 16 16 16 16
29 29 29 29 30 29 29 29 28 29 30 29 29 29 28 28 28 28 28 27 27 27 27 26 26 26 26 25 24 23 23 23 22 22 21 20 20 18 18 17 18 18 17
30 30 31 30 31 31 31 31 30 30 30 31 31 30 29 29 29 29 30 30 30 29 29 29 28 28 28 28 27 26 25 24 24 24 23 22 21 20 19 19 19 19 19
30 31 31 32 31 31 31 32 31 31 31 31 32 31 31 30 30 31 31 32 31 31 31 30 30 30 30 30 29 28 27 26 25 25 24 24 23 22 21 20 20 20 20
30 31 31 32 32 32 32 33 33 32 32 33 33 33 32 32 31 32 32 33 33 33 32 32 32 32 31 31 31 31 29 29 28 27 26 26 25 24 23 22 22 22 21
31 31 32 32 33 32 32 33 32 33 34 34 33 34 34 34 33 33 33 34 34 34 34 33 33 33 33 33 32 32 32 31 30 29 29 28 27 26 25 24 24 23 23
32 32 32 32 33 33 33 33 33 34 35 35 35 35 35 36 35 35 34 35 35 35 35 35 34 34 34 33 33 33 33 33 32 31 31 30 30 29 28 27 27 26 26
32 33 33 33 33 33 34 34 35 35 35 36 36 37 35 35 36 36 35 35 35 36 35 35 35 35 35 34 34 34 34 34 35 34 33 32 32 31 30 30 29 28 28
33 33 34 34 34 34 34 35 36 36 37 37 37 37 36 34 34 35 35 35 35 36 36 36 36 36 36 36 36 35 35 35 35 35 34 34 33 33 32 32 32 31 31
34 34 34 35 35 35 35 36 36 37 38 38 38 37 37 36 36 35 35 36 36 36 36 37 37 37 37 37 37 37 37 37 37 37 36 36 35 35 34 33 33 33 32
35 35 35 35 36 36 37 37 37 38 38 38 38 38 38 37 37 37 37 37 36 36 36 37 38 38 38 38 39 39 39 39 39 38 38 37 38 37 37 36 36 35 34
37 36 36 36 37 37 37 38 38 38 39 39 38 38 38 37 37 37 37 37 37 37 37 38 38 38 39 39 39 39 40 40 40 41 41 40 40 39 39 39 38 38 37
38 38 38 38 38 39 39 39 39 39 40 40 40 39 39 39 38 38 39 38 38 38 39 39 40 39 40 39 39 39 40 41 41 41 42 41 41 40 40 40 40 40 39
39 39 39 40 40 40 40 40 40 40 41 41 41 41 40 40 40 39 40 40 39 39 40 40 40 41 41 40 40 40 40 41 41 41 41 42 42 42 41 41 41 41 41
40 40 41 41 41 40 40 41 41 40 41 41 41 42 42 42 41 41 40 42 42 42 41 42 41 41 41 41 41 42 42 42 42 41 41 42 43 43 43 43 43 42 42
40 41 42 42 42 42 42 42 43 42 42 42 42 42 43 43 43 43 43 43 43 43 43 43 43 42 42 42 43 43 43 43 43 42 42 43 44 45 45 45 45 44 44
Wind_Direction
242 242 242 241 243 244 244 246 247 245 243 243 245 245 247 248 249 251 249 246 241 235 226 217 213 210 212 213 209 205 203 201 200 197 189 185 193 185 168 161 168 169 155
243 242 241 240 244 244 244 245 246 245 244 244 245 246 247 248 249 250 248 248 244 236 231 225 220 216 216 218 217 212 211 210 210 210 207 206 209 211 218 227 234 235 234
244 243 242 240 244 246 246 246 246 246 245 245 246 248 250 251 247 248 249 249 245 238 232 227 223 220 219 220 222 220 219 220 218 217 219 220 223 223 231 241 242 243 248
247 245 244 243 245 247 248 247 247 247 247 246 246 248 251 252 248 247 249 248 246 242 234 227 224 223 223 225 225 226 229 226 226 228 229 227 227 233 238 238 238 245 249
248 247 246 245 247 248 249 249 248 249 249 249 248 249 250 251 249 247 246 246 244 240 233 226 223 226 227 227 229 229 230 233 233 234 233 232 232 235 237 241 242 246 249
249 248 248 247 248 248 249 249 249 249 250 250 250 249 250 249 249 247 247 245 242 237 232 227 227 229 229 228 228 230 232 233 236 239 238 237 237 239 243 244 246 246 250
250 249 249 249 250 250 250 249 249 248 249 251 251 252 251 250 250 249 248 246 244 241 237 235 234 233 235 237 234 234 236 236 238 240 242 241 242 244 246 247 247 246 251
250 249 249 250 250 250 250 250 250 249 249 251 252 252 253 252 252 251 248 247 246 241 240 239 238 238 239 240 237 237 238 237 240 239 241 244 247 248 249 250 250 249 252
249 249 249 251 250 251 252 254 252 252 251 252 253 253 253 254 253 253 250 249 248 246 242 240 238 239 240 241 239 239 241 240 240 241 241 243 246 249 250 253 252 254 257
249 249 249 250 252 251 252 255 254 253 252 253 254 254 254 254 254 253 251 250 249 248 245 241 240 240 240 241 242 242 242 241 241 242 244 246 246 248 252 253 254 256 260
249 249 250 249 250 251 251 254 256 254 253 253 254 255 255 254 253 253 252 251 250 249 248 246 245 244 242 242 244 245 245 243 244 244 246 247 249 251 251 253 256 258 260
250 250 251 251 251 252 251 253 255 255 254 254 254 255 256 254 253 253 252 252 251 250 249 249 249 248 246 245 245 246 246 245 247 247 247 248 250 253 253 254 258 260 262
251 249 249 250 251 252 252 253 253 253 254 255 255 255 256 256 255 254 252 252 252 251 250 250 249 249 249 248 247 247 247 247 248 248 248 248 249 252 253 255 258 260 262
251 250 250 251 252 252 252 253 254 254 254 256 256 255 256 257 256 255 253 251 252 251 250 250 249 249 249 249 249 248 248 248 250 249 249 249 248 250 252 255 258 260 263
253 252 252 252 253 253 253 253 253 255 256 257 258 257 256 257 258 256 254 253 252 252 251 250 249 249 249 249 250 249 249 249 249 249 250 249 249 251 253 255 258 260 263
255 254 254 254 255 255 254 254 254 256 256 256 257 257 257 258 258 257 256 254 253 252 251 251 250 249 249 250 249 249 249 249 249 249 251 251 252 253 254 256 258 260 263
255 255 256 256 256 256 256 255 254 255 257 257 257 258 258 259 258 256 257 255 253 252 251 251 251 251 251 250 249 250 250 249 250 251 252 252 254 256 257 257 259 260 262
255 255 256 256 257 257 257 257 256 256 257 258 258 258 259 260 259 257 255 255 253 253 252 252 251 250 250 250 249 250 250 250 251 251 251 252 254 256 257 258 259 261 262
255 256 257 257 258 258 258 258 258 257 258 258 260 259 260 261 260 259 256 255 253 253 253 252 251 251 251 251 251 250 250 251 252 252 251 252 253 255 257 258 260 261 262
255 256 257 258 258 259 259 260 259 259 259 259 259 259 259 260 260 259 258 255 253 253 254 254 252 251 252 252 252 251 250 251 252 253 253 254 254 255 257 258 259 260 261
255 256 257 258 258 259 259 260 260 259 258 259 258 259 260 260 260 259 259 257 255 254 254 254 253 252 252 252 252 252 252 251 252 253 254 255 256 256 256 258 260 260 261
256 257 258 258 259 259 259 259 260 259 258 258 258 259 260 260 260 258 257 257 256 256 255 254 254 254 254 254 255 255 255 253 253 254 255 256 257 257 257 258 260 261 261
256 257 257 258 259 259 259 259 259 258 258 258 259 260 259 259 261 259 257 256 256 256 257 256 254 253 254 254 255 255 256 255 255 255 255 256 257 257 258 259 259 259 260
257 257 258 258 259 259 259 259 260 261 259 259 259 260 261 261 261 261 261 259 258 258 258 257 255 254 254 255 256 256 256 257 256 255 255 256 257 258 258 258 259 260 260
259 259 258 259 259 258 259 259 260 261 260 259 260 260 261 263 262 262 262 261 261 261 259 258 256 256 255 255 256 257 257 256 256 255 255 256 258 259 258 258 258 259 260
259 259 259 259 259 258 258 259 260 261 260 260 260 261 261 262 262 262 262 262 262 262 260 258 256 256 256 256 257 257 257 256 256 257 257 258 259 259 258 259 259 261 261
Height
5834 5835 5836 5836 5837 5838 5839 5840 5841 5841 5842 5843 5844 5844 5845 5845 5846 5846 5846 5846 5846 5847 5847 5848 5849 5851 5852 5853 5854 5855 5856 5857 5858 5859 5860 5860 5861 5862 5862 5862 5863 5863 5863
5831 5832 5833 5834 5835 5836 5837 5838 5838 5839 5840 5841 5842 5842 5843 5843 5844 5844 5844 5845 5845 5845 5846 5847 5849 5850 5851 5852 5853 5854 5855 5856 5857 5858 5859 5860 5860 5861 5862 5862 5863 5863 5863
5828 5829 5830 5831 5832 5833 5834 5835 5836 5837 5838 5839 5839 5840 5841 5841 5842 5842 5843 5843 5842 5842 5842 5844 5846 5848 5850 5851 5852 5853 5854 5855 5856 5857 5858 5859 5860 5860 5861 5861 5862 5862 5863
5824 5826 5827 5828 5829 5830 5831 5832 5833 5835 5835 5836 5837 5837 5838 5839 5839 5840 5841 5841 5839 5838 5838 5841 5844 5846 5848 5850 5851 5852 5853 5854 5855 5856 5857 5858 5859 5860 5860 5861 5861 5861 5862
5821 5822 5823 5825 5826 5827 5829 5830 5831 5832 5832 5833 5834 5835 5835 5836 5837 5838 5839 5838 5837 5836 5837 5839 5842 5844 5846 5848 5849 5850 5851 5852 5853 5854 5855 5856 5857 5858 5859 5859 5860 5860 5861
5817 5818 5820 5821 5823 5824 5825 5826 5827 5828 5829 5830 5831 5832 5833 5834 5835 5835 5836 5836 5836 5836 5836 5838 5840 5841 5844 5845 5847 5848 5850 5851 5851 5852 5853 5854 5855 5856 5857 5858 5858 5859 5859
5812 5814 5816 5817 5819 5820 5821 5822 5824 5825 5826 5826 5827 5828 5829 5830 5831 5832 5833 5834 5834 5835 5835 5836 5838 5839 5841 5843 5844 5846 5847 5848 5849 5850 5851 5852 5853 5854 5855 5855 5856 5857 5858
5808 5809 5811 5812 5814 5815 5817 5818 5819 5821 5822 5822 5823 5824 5826 5827 5828 5828 5829 5830 5831 5832 5833 5834 5835 5837 5839 5840 5841 5843 5845 5846 5847 5848 5849 5850 5851 5851 5852 5853 5854 5855 5856
5802 5804 5806 5808 5809 5811 5812 5813 5815 5816 5817 5818 5819 5820 5821 5822 5823 5824 5825 5826 5827 5828 5830 5831 5832 5834 5835 5837 5838 5840 5841 5843 5844 5845 5846 5847 5848 5849 5850 5851 5851 5852 5853
5797 5799 5801 5802 5804 5806 5807 5808 5810 5811 5812 5813 5814 5815 5817 5818 5819 5820 5821 5822 5823 5824 5825 5827 5828 5830 5831 5833 5835 5836 5838 5839 5841 5842 5843 5844 5845 5846 5847 5848 5848 5849 5850
5791 5793 5795 5797 5799 5800 5801 5803 5804 5805 5807 5808 5809 5810 5811 5813 5814 5815 5816 5817 5818 5820 5821 5822 5823 5825 5827 5829 5830 5832 5834 5835 5837 5838 5839 5841 5842 5842 5843 5844 5845 5846 5847
5785 5787 5789 5791 5792 5794 5796 5797 5798 5799 5801 5802 5803 5804 5805 5807 5808 5809 5811 5812 5813 5814 5816 5817 5819 5820 5822 5824 5825 5827 5829 5831 5832 5834 5835 5837 5838 5839 5840 5841 5841 5842 5843
5778 5780 5782 5784 5786 5787 5789 5791 5792 5793 5794 5795 5796 5798 5799 5801 5802 5803 5804 5806 5807 5809 5810 5812 5813 5815 5817 5819 5821 5822 5824 5825 5827 5829 5831 5832 5833 5835 5836 5836 5837 5838 5839
5772 5774 5775 5777 5779 5781 5782 5784 5785 5787 5788 5789 5790 5791 5792 5794 5795 5796 5798 5799 5801 5802 5804 5806 5808 5809 5811 5813 5815 5817 5818 5820 5822 5823 5825 5827 5828 5830 5831 5832 5833 5834 5835
5765 5767 5769 5770 5772 5774 5775 5777 5778 5780 5781 5781 5783 5784 5785 5787 5788 5789 5790 5792 5793 5795 5797 5799 5801 5803 5805 5806 5808 5811 5813 5814 5816 5818 5820 5821 5823 5824 5826 5827 5828 5829 5830
5758 5759 5761 5763 5765 5766 5768 5769 5771 5772 5773 5774 5776 5777 5778 5779 5780 5781 5782 5784 5786 5787 5789 5792 5794 5796 5798 5799 5802 5804 5806 5808 5810 5812 5813 5815 5817 5819 5820 5821 5822 5823 5824
5750 5752 5753 5755 5757 5759 5760 5761 5763 5764 5765 5766 5767 5769 5770 5771 5772 5773 5775 5776 5778 5780 5782 5784 5786 5788 5790 5792 5795 5797 5799 5801 5803 5805 5807 5809 5811 5812 5814 5815 5816 5817 5818
5742 5744 5746 5748 5749 5751 5752 5753 5754 5756 5757 5758 5759 5761 5762 5763 5764 5765 5766 5768 5769 5771 5774 5776 5778 5780 5782 5785 5787 5789 5791 5793 5796 5798 5800 5802 5804 5805 5807 5808 5809 5810 5811
5735 5737 5738 5740 5741 5743 5744 5745 5745 5747 5748 5749 5750 5752 5753 5754 5755 5756 5758 5759 5761 5763 5765 5767 5770 5772 5774 5776 5778 5781 5783 5785 5787 5790 5792 5794 5796 5798 5799 5801 5802 5803 5804
5726 5728 5730 5731 5733 5734 5735 5736 5737 5738 5740 5741 5741 5743 5744 5746 5747 5748 5749 5751 5753 5754 5756 5758 5761 5763 5765 5767 5770 5772 5774 5777 5779 5781 5784 5786 5788 5790 5791 5793 5794 5795 5796
5717 5719 5721 5722 5724 5725 5726 5728 5729 5730 5731 5732 5732 5733 5735 5736 5738 5739 5741 5742 5744 5746 5747 5749 5751 5754 5756 5758 5760 5763 5765 5768 5770 5773 5775 5777 5779 5781 5783 5784 5786 5787 5788
5708 5710 5712 5713 5715 5716 5717 5719 5720 5720 5721 5722 5723 5724 5726 5727 5729 5730 5732 5733 5735 5737 5739 5740 5742 5745 5747 5749 5751 5753 5756 5759 5760 5763 5765 5767 5769 5771 5774 5775 5777 5778 5779
5699 5701 5703 5704 5705 5706 5708 5709 5710 5711 5712 5713 5714 5715 5716 5718 5719 5721 5723 5724 5726 5728 5729 5731 5733 5735 5738 5740 5741 5744 5746 5749 5751 5753 5755 5757 5759 5761 5764 5765 5767 5769 5770
5689 5691 5693 5694 5695 5696 5698 5699 5700 5701 5702 5703 5704 5705 5707 5708 5709 5711 5713 5715 5716 5718 5720 5721 5723 5725 5727 5730 5732 5734 5736 5738 5740 5743 5745 5747 5749 5751 5753 5755 5757 5758 5760
5679 5681 5682 5683 5685 5686 5687 5689 5690 5691 5692 5693 5694 5695 5696 5698 5699 5701 5703 5705 5707 5708 5710 5711 5713 5715 5717 5719 5722 5724 5726 5728 5730 5732 5735 5737 5739 5740 5742 5744 5746 5748 5749
5669 5670 5671 5672 5674 5675 5677 5678 5679 5680 5681 5682 5684 5685 5686 5688 5689 5691 5692 5694 5696 5697 5699 5701 5702 5704 5706 5709 5711 5713 5715 5717 5719 5721 5723 5726 5728 5729 5731 5733 5735 5737 5738